Notices

What's New in latest Release from April 7th, 2021:

- Updated Glossary, including Speed of Maximum Gust, and Total Hourly Precipitation

- Updated national and regional climate services offices contacts and prices information

- Addition of station inventory lists for 1981-2010, 1971-2000, and 1961-1990 Normals.

If you haven't already, please take our survey and provide feedback about our website: https://eccc.sondage-survey.ca/f/LanguageSelection.aspx?s=442ca660-fcf1-47c0-95a9-59707d6fd709

Hourly Data Report for October 29, 2019

PINAWA
MANITOBA
Current Station Operator: ECCC - MSC

50°10'38.020" N
96°03'53.000" W
268.00 m
503B1ER
71448
WEA

Download Data

Hourly Data (October 2019)
Hourly Data Report for October 29, 2019
TIME
LST
Temp Definition
°C
Dew Point Definition
°C
Rel Hum Definition
%
Precip. Amount Definition
mm

Wind Dir Definition
10's deg

Wind Spd Definition
km/h
Visibility Definition
km
Stn Press Definition
kPa
Hmdx Definition


Wind Chill Definition


Weather Definition


00:00 -3.1 LegendMM LegendMM 0.0 23 5   98.14   -5 LegendNANA
01:00 -2.6 LegendMM LegendMM 0.0 25 7   98.15   -5 LegendNANA
02:00 -2.7 LegendMM LegendMM 0.0 25 7   98.19   -6 LegendNANA
03:00 -2.9 LegendMM LegendMM 0.6 28 10   98.21   -7 LegendNANA
04:00 -3.8 LegendMM LegendMM 0.0 26 9   98.24   -8 LegendNANA
05:00 -4.1 LegendMM LegendMM 0.0 25 9   98.26   -8 LegendNANA
06:00 -4.2 LegendMM LegendMM 0.5 26 9   98.28   -8 LegendNANA
07:00 -4.5 LegendMM LegendMM 0.0 25 8   98.31   -8 LegendNANA
08:00 -4.4 LegendMM LegendMM 0.2 24 7   98.37   -8 LegendNANA
09:00 -4.1 LegendMM LegendMM 0.0 23 7   98.40   -7 LegendNANA
10:00 -4.3 LegendMM LegendMM 0.2 25 13   98.42   -9 LegendNANA
11:00 -4.3 LegendMM LegendMM 0.0 24 13   98.46   -9 LegendNANA
12:00 -5.1 LegendMM LegendMM 0.0 25 15   98.50   -11 LegendNANA
13:00 -5.1 LegendMM LegendMM 0.0 24 13   98.49   -10 LegendNANA
14:00 -4.8 LegendMM LegendMM 0.0 25 13   98.48   -10 LegendNANA
15:00 -4.2 LegendMM LegendMM 0.0 25 10   98.51   -8 LegendNANA
16:00 -4.8 LegendMM LegendMM 0.0 25 8   98.53   -8 LegendNANA
17:00 -5.6 LegendMM LegendMM 0.0 23 6   98.53   -8 LegendNANA
18:00 -5.8 LegendMM LegendMM 0.0 24 8   98.59   -10 LegendNANA
19:00 -6.8 LegendMM LegendMM 0.0 22 6   98.63   -10 LegendNANA
20:00 -7.0 LegendMM LegendMM 0.0 23 6   98.66   -10 LegendNANA
21:00 -6.7 LegendMM LegendMM 0.0 23 7   98.69   -10 LegendNANA
22:00 -6.4 LegendMM LegendMM 0.0 23 7   98.74   -10 LegendNANA
23:00 -6.5 LegendMM LegendMM 0.0 25 9   98.77   -11 LegendNANA

Notes on Data Quality.

Legend

  • E = Estimated
  • M = Missing
  • NA = Not Available*
  • [empty] = Indicates an unobserved value
Date modified: